Location: Bathurst
(33.4193°S, 149.5775°E)
Time: 15:12:55
(UTC+11:00)

Envisat - Pass Details

Date: 27 January 2021
Orbit: 764 x 766 km, 98.1° (Epoch: 07 March)

Event Time Altitude Azimuth Distance (km) Brightness Sun altitude
Rises 04:42:40 0° 59° (ENE) 3,227 6.5 -18.1°
Reaches altitude 10° 04:46:00 10° 83° (E) 2,310 6.1 -17.6°
Maximum altitude 04:48:39 14° 115° (ESE) 2,022 6.3 -17.2°
Drops below altitude 10° 04:51:21 10° 147° (SSE) 2,325 6.6 -16.7°
Sets 04:54:42 0° 170° (S) 3,261 7.0 -16.1°
